User: anonymous   Login
Location: *
(40.4270°N, 9.4940°E)
Time: 04:25:03
(UTC+02:00)
Language:

Okean 2 - Orbit

View from above orbital plane
View from above orbital plane
View from above satellite
View from above satellite

Ground track
Ground track

The orbit data is extracted from the following two-line orbital elements,

1 20510U 90018A   15244.57837513  .00000915  00000-0  75302-4 0  9997
2 20510  82.5135  79.6391 0013588  37.6962  14.6643 14.97929631383411
Epoch (UTC): 01 September 2015 13:52:51
Eccentricity: 0.0013588
inclination: 82.5135°
perigee height: 564 km
apogee height: 583 km
right ascension of ascending node: 79.6391°
argument of perigee: 37.6962°
revolutions per day: 14.97929631
mean anomaly at epoch: 14.6643°
orbit number at epoch: 38341

The dashed part of the orbit path shows where the satellite is in the earth's shadow,  

DLR